sat.trackr.live / text

‹ back to catalog

STARLINK-4435

NORAD 53502 · 2022-099AP

PAYLOAD ACTIVE UNKNOWN

§ Identity

Operator
Country
US
Launch date
2022-08-12
Launch site
AFWTR
Launch vehicle
Mass (kg)
RCS (m²)

Purposes: comms

External: N2YO · Heavens-Above · Gunter

§ Orbital elements

Epoch: 2026-05-25T04:00:03.998880Z

Period
93.37 min
Inclination
97.6034°
Eccentricity
0.0001599
Mean motion
15.42312670 rev/d
Perigee alt
438.2 km
Apogee alt
440.4 km
Semi-major
6,817.4 km
B*
2.7281e-3
RAAN
268.4038°
Arg perigee
73.6225°
Mean anomaly
14.9219°
Rev number
582

§ Raw data

STARLINK-44351 53502U 22099AP  26145.16671295  .00119088  00000+0  27281-2 0  99902 53502  97.6034 268.4038 0001599  73.6225  14.9219 15.42312670  5828

JSON: /api/v1/satellites/53502 · /tle

For live sub-satellite position, see the globe view (requires WebGL).

§ Visibility from observer

Set your observer location to see the next 7 days of passes ≥ 10°. The values pass through the URL so the page stays shareable.

No JS? Fill the form by hand. The geolocation button needs JavaScript.